C/2018 F4 ( PanSTARRS )

Japanese version
Home page
Updated on May 21, 2018

---------------------------------------------------------------------

* Profile

Discovery Date March 17, 2018
Magnitude 20.4 mag
Discoverer Pan-STARRS 1 telescope (Haleakala)

* Pictures

* Orbital Elements

Epoch 2019 Nov. 13.0 TT = JDT 2458800.5
T 2019 Dec. 1.28548 TT                                  MPCW
q   3.4363193            (2000.0)            P               Q
z  -0.0040952      Peri.  263.05304     -0.01887544     +0.89921738
 +/-0.0013284      Node    26.50456     +0.17280557     +0.43352752
e   1.0140723      Incl.   78.36212     -0.98477508     +0.05883866
From 86 observations 2018 Mar. 17-Apr. 13, mean residual 0".5.

* Finding Charts

* Magnitudes Graph

        m1 = 7.5 + 5 log d + 10.0 log r

---------------------------------------------------------------------

The orbital elements are published on M.P.E.C. 2018-H21.
The charts are made with StellaNavigator Ver.10 (AstroArts).
The magnitudes graphs are made with Comet for Windows.

---------------------------------------------------------------------

Copyright(C) Seiichi Yoshida (comet@aerith.net). All rights reserved.